User: anonymous   Login
Location: Unspecified
(0.0000°N, 0.0000°E)
Time: 16:23:30
(UTC+00:00)
Language:

OPTUS 1C - Orbit

View from above orbital plane
View from above orbital plane
View from above satellite
View from above satellite

Ground track
Ground track

The orbit data is extracted from the following two-line orbital elements,

1 27831U 03028B   17080.81992781 -.00000159 +00000-0 +00000-0 0  9991
2 27831 000.0341 159.6560 0002349 205.5956 265.4403 01.00272942019228
Epoch (UTC): 21 March 2017 19:40:41
Eccentricity: 0.0002349
inclination: 0.0341°
perigee height: 35776 km
apogee height: 35796 km
right ascension of ascending node: 159.6560°
argument of perigee: 205.5956°
revolutions per day: 1.00272942
mean anomaly at epoch: 265.4403°
orbit number at epoch: 1922

The dashed part of the orbit path shows where the satellite is in the earth's shadow,  

DLR